IRM086 ZGSZ-OIIE

Flight info

Callsign IRM086
Flight time N/A
Altitude 36000
Route TOM9YD TOMUD R200 BIGRO/K0924S0980 R200 LH R339 WUY/K0911S1040 R339 BSE A599 LXI W148 XSJ W146 GULOT A599 LINSO/N0494F340 A599 LSO A201 ANSOS/N0488F360 A201 BODOG Q18 LKN/N0478F380 M890 JAL R594 DPN G333 MERUN R471 RK G452 ZDN L125 DAPAP G208 TOVUS L125 BOPAG/N0471F280 G208 RADAL RADA2V
Aircraft A343/H-SDE2E3FGHIJ4J5M1RWXYZ/LB2D1

Departure

Time 2026-05-05 00:18
Airport Shenzhen Bao'an International Airport (ZGSZ)

Arrival

Time N/A
Airport Imam Khomeini International Airport (OIIE)
Time Latitude Longitude Altitude Speed Heading
2026-05-04 23:58 22.62911 113.81164 26 ft 0 kts 263°
2026-05-05 00:07 22.62913 113.81177 26 ft 2 kts 251°
2026-05-05 00:08 22.62919 113.81193 26 ft 2 kts 239°
2026-05-05 00:08 22.62927 113.81206 26 ft 2 kts 228°
2026-05-05 00:08 22.62938 113.81217 26 ft 2 kts 216°
2026-05-05 00:08 22.62951 113.81226 26 ft 2 kts 205°
2026-05-05 00:09 22.62965 113.81232 26 ft 2 kts 193°
2026-05-05 00:09 22.62979 113.81235 26 ft 2 kts 182°
2026-05-05 00:09 22.62995 113.81234 26 ft 2 kts 171°
2026-05-05 00:09 22.63009 113.81231 26 ft 2 kts 159°
2026-05-05 00:10 22.63022 113.81224 26 ft 1 kts 152°
2026-05-05 00:10 22.63023 113.81224 26 ft 0 kts 152°
2026-05-05 00:12 22.63018 113.81226 26 ft 2 kts 152°
2026-05-05 00:13 22.62993 113.81241 26 ft 5 kts 152°
2026-05-05 00:13 22.62946 113.81271 26 ft 9 kts 136°
2026-05-05 00:13 22.62931 113.81358 26 ft 14 kts 91°
2026-05-05 00:13 22.62863 113.81435 26 ft 16 kts 154°
2026-05-05 00:14 22.62756 113.81491 26 ft 18 kts 152°
2026-05-05 00:14 22.62649 113.81547 26 ft 14 kts 155°
2026-05-05 00:14 22.62574 113.81589 26 ft 9 kts 153°
2026-05-05 00:14 22.62531 113.81612 26 ft 6 kts 153°
2026-05-05 00:15 22.62507 113.81650 26 ft 6 kts 88°
2026-05-05 00:15 22.62526 113.81704 26 ft 8 kts 66°
2026-05-05 00:15 22.62556 113.81770 26 ft 10 kts 64°
2026-05-05 00:15 22.62596 113.81793 26 ft 5 kts 339°
2026-05-05 00:16 22.62606 113.81788 26 ft 0 kts 334°
2026-05-05 00:16 22.62629 113.81776 26 ft 16 kts 334°
2026-05-05 00:16 22.62869 113.81645 26 ft 59 kts 333°
2026-05-05 00:17 22.63361 113.81375 26 ft 96 kts 333°
2026-05-05 00:17 22.64065 113.80989 26 ft 127 kts 332°
2026-05-05 00:17 22.64945 113.80505 26 ft 152 kts 334°
2026-05-05 00:17 22.65956 113.79989 54 ft 165 kts 337°
2026-05-05 00:18 22.66996 113.79472 326 ft 154 kts 335°
2026-05-05 00:18 22.67994 113.78957 277 ft 171 kts 336°
2026-05-05 00:18 22.69061 113.78309 540 ft 177 kts 322°
2026-05-05 00:18 22.69842 113.77258 912 ft 181 kts 287°
2026-05-05 00:19 22.70014 113.75903 1157 ft 192 kts 257°
2026-05-05 00:19 22.69565 113.74405 1091 ft 222 kts 244°
2026-05-05 00:19 22.68629 113.72988 1398 ft 233 kts 214°
2026-05-05 00:19 22.67367 113.71970 2104 ft 230 kts 220°
2026-05-05 00:20 22.66162 113.70738 2480 ft 243 kts 223°
2026-05-05 00:20 22.64977 113.69445 3013 ft 237 kts 224°
2026-05-05 00:20 22.63798 113.68130 3180 ft 246 kts 225°
2026-05-05 00:20 22.62597 113.66784 3439 ft 247 kts 225°
2026-05-05 00:21 22.61397 113.65431 3720 ft 247 kts 225°
2026-05-05 00:21 22.60202 113.64091 4026 ft 247 kts 225°
2026-05-05 00:21 22.59006 113.62743 4307 ft 247 kts 226°
2026-05-05 00:21 22.57817 113.61404 4606 ft 246 kts 226°
2026-05-05 00:22 22.56622 113.60060 4916 ft 246 kts 226°
2026-05-05 00:22 22.55432 113.58723 5181 ft 247 kts 226°
2026-05-05 00:22 22.54240 113.57382 5481 ft 246 kts 226°
2026-05-05 00:22 22.52939 113.56160 5702 ft 249 kts 207°
2026-05-05 00:23 22.51271 113.55580 5887 ft 254 kts 196°
2026-05-05 00:23 22.49544 113.55056 6028 ft 261 kts 198°
2026-05-05 00:23 22.47746 113.54506 6172 ft 268 kts 198°
2026-05-05 00:23 22.45933 113.53949 6355 ft 273 kts 198°
2026-05-05 00:24 22.44083 113.53381 6639 ft 274 kts 198°
2026-05-05 00:24 22.42223 113.52814 6960 ft 274 kts 198°
2026-05-05 00:24 22.40371 113.52244 7263 ft 275 kts 198°
2026-05-05 00:24 22.38535 113.51681 7564 ft 276 kts 198°
2026-05-05 00:25 22.36673 113.51111 7873 ft 277 kts 199°
2026-05-05 00:25 22.34777 113.50529 8150 ft 278 kts 199°
2026-05-05 00:25 22.32911 113.49960 8447 ft 279 kts 199°
2026-05-05 00:25 22.31019 113.49378 8737 ft 281 kts 199°
2026-05-05 00:26 22.29122 113.48799 9036 ft 282 kts 199°
2026-05-05 00:26 22.27212 113.48215 9350 ft 282 kts 199°
2026-05-05 00:26 22.25302 113.47632 9628 ft 284 kts 199°
2026-05-05 00:26 22.23417 113.46981 9905 ft 282 kts 210°
2026-05-05 00:27 22.21935 113.45657 10143 ft 278 kts 237°
2026-05-05 00:27 22.21082 113.43757 10323 ft 282 kts 250°
2026-05-05 00:27 22.20344 113.41752 10467 ft 289 kts 249°
2026-05-05 00:27 22.19590 113.39716 10586 ft 296 kts 249°
2026-05-05 00:28 22.18815 113.37623 10725 ft 304 kts 249°
2026-05-05 00:28 22.18030 113.35506 10848 ft 311 kts 249°
2026-05-05 00:28 22.17217 113.33309 10978 ft 318 kts 249°
2026-05-05 00:28 22.16383 113.31059 11112 ft 326 kts 249°
2026-05-05 00:29 22.15537 113.28777 11250 ft 333 kts 249°
2026-05-05 00:29 22.14673 113.26447 11383 ft 340 kts 249°
2026-05-05 00:29 22.13779 113.24048 11516 ft 346 kts 248°
2026-05-05 00:29 22.12780 113.21648 11695 ft 351 kts 246°
2026-05-05 00:30 22.11790 113.19255 11971 ft 353 kts 246°
2026-05-05 00:30 22.10774 113.16821 12312 ft 353 kts 247°
2026-05-05 00:30 22.09760 113.14384 12651 ft 354 kts 247°
2026-05-05 00:30 22.08762 113.11985 12945 ft 355 kts 247°
2026-05-05 00:31 22.07743 113.09539 13239 ft 357 kts 247°
2026-05-05 00:31 22.06730 113.07104 13569 ft 358 kts 247°
2026-05-05 00:31 22.05710 113.04657 13883 ft 359 kts 247°
2026-05-05 00:31 22.04685 113.02192 14188 ft 361 kts 247°
2026-05-05 00:32 22.03649 112.99700 14444 ft 364 kts 248°
2026-05-05 00:32 22.02688 112.97211 14779 ft 364 kts 248°
2026-05-05 00:32 22.01697 112.94679 15113 ft 365 kts 248°
2026-05-05 00:32 22.00713 112.92146 15382 ft 368 kts 248°
2026-05-05 00:33 21.99730 112.89625 15687 ft 370 kts 248°
2026-05-05 00:33 21.98736 112.87077 16002 ft 371 kts 248°
2026-05-05 00:33 21.97725 112.84485 16304 ft 373 kts 248°
2026-05-05 00:33 21.96719 112.81911 16632 ft 374 kts 248°
2026-05-05 00:34 21.95679 112.79338 16935 ft 376 kts 248°
2026-05-05 00:34 21.94638 112.76748 17205 ft 379 kts 248°
2026-05-05 00:34 21.93594 112.74163 17505 ft 381 kts 248°
2026-05-05 00:34 21.92534 112.71534 17869 ft 381 kts 248°
2026-05-05 00:35 21.91477 112.68910 18196 ft 383 kts 248°
2026-05-05 00:35 21.90428 112.66316 18533 ft 384 kts 248°
2026-05-05 00:35 21.89360 112.63670 18842 ft 386 kts 248°
2026-05-05 00:35 21.88291 112.61025 19187 ft 387 kts 248°
2026-05-05 00:36 21.87205 112.58342 19504 ft 389 kts 248°
2026-05-05 00:36 21.86128 112.55677 19775 ft 391 kts 249°
2026-05-05 00:36 21.85059 112.53007 20078 ft 393 kts 249°
2026-05-05 00:36 21.83980 112.50279 20363 ft 395 kts 249°
2026-05-05 00:37 21.82916 112.47591 20670 ft 396 kts 249°
2026-05-05 00:37 21.81832 112.44864 20974 ft 397 kts 249°
2026-05-05 00:37 21.80736 112.42102 21248 ft 399 kts 249°
2026-05-05 00:37 21.79648 112.39362 21525 ft 400 kts 249°
2026-05-05 00:38 21.78562 112.36624 21770 ft 402 kts 249°
2026-05-05 00:38 21.77455 112.33842 22025 ft 404 kts 249°
2026-05-05 00:38 21.76346 112.31056 22292 ft 405 kts 249°
2026-05-05 00:38 21.75251 112.28303 22574 ft 406 kts 249°
2026-05-05 00:39 21.74137 112.25506 22795 ft 409 kts 249°
2026-05-05 00:39 21.73010 112.22680 23071 ft 410 kts 249°
2026-05-05 00:39 21.71886 112.19861 23343 ft 411 kts 249°
2026-05-05 00:39 21.70770 112.17065 23585 ft 412 kts 249°
2026-05-05 00:40 21.69638 112.14226 23807 ft 414 kts 249°
2026-05-05 00:40 21.68504 112.11387 24058 ft 415 kts 249°
2026-05-05 00:40 21.67353 112.08509 24306 ft 416 kts 249°
2026-05-05 00:40 21.66218 112.05674 24496 ft 419 kts 249°
2026-05-05 00:41 21.65058 112.02773 24775 ft 419 kts 249°
2026-05-05 00:41 21.63912 111.99911 24977 ft 421 kts 249°
2026-05-05 00:41 21.62762 111.97040 25196 ft 422 kts 249°
2026-05-05 00:41 21.61606 111.94155 25417 ft 423 kts 249°
2026-05-05 00:42 21.60435 111.91238 25613 ft 425 kts 249°
2026-05-05 00:42 21.59257 111.88306 25822 ft 426 kts 249°
2026-05-05 00:42 21.58100 111.85423 26039 ft 427 kts 249°
2026-05-05 00:42 21.56934 111.82463 26193 ft 428 kts 251°
2026-05-05 00:43 21.56063 111.79414 26382 ft 428 kts 255°
2026-05-05 00:43 21.55180 111.76372 26588 ft 428 kts 255°
2026-05-05 00:43 21.54313 111.73305 26737 ft 430 kts 255°
2026-05-05 00:43 21.53436 111.70246 26951 ft 431 kts 255°
2026-05-05 00:44 21.52551 111.67166 27142 ft 431 kts 255°
2026-05-05 00:44 21.51667 111.64082 27284 ft 433 kts 255°
2026-05-05 00:44 21.50787 111.61021 27429 ft 434 kts 255°
2026-05-05 00:44 21.49900 111.57939 27598 ft 435 kts 255°
2026-05-05 00:45 21.49007 111.54833 27747 ft 435 kts 255°
2026-05-05 00:45 21.48117 111.51747 27870 ft 437 kts 255°
2026-05-05 00:45 21.47212 111.48610 28030 ft 437 kts 255°
2026-05-05 00:45 21.46320 111.45518 28180 ft 437 kts 255°
2026-05-05 00:46 21.45425 111.42420 28304 ft 438 kts 255°
2026-05-05 00:46 21.44523 111.39291 28412 ft 439 kts 255°
2026-05-05 00:46 21.43614 111.36151 28520 ft 439 kts 255°
2026-05-05 00:46 21.42719 111.33058 28637 ft 440 kts 255°
2026-05-05 00:47 21.41804 111.29902 28764 ft 441 kts 255°
2026-05-05 00:47 21.40901 111.26785 28890 ft 441 kts 255°
2026-05-05 00:47 21.39983 111.23625 29026 ft 441 kts 255°
2026-05-05 00:47 21.39074 111.20490 29152 ft 442 kts 255°
2026-05-05 00:48 21.38169 111.17375 29279 ft 442 kts 255°
2026-05-05 00:48 21.37257 111.14237 29406 ft 442 kts 255°
2026-05-05 00:48 21.36344 111.11098 29530 ft 442 kts 255°
2026-05-05 00:48 21.35423 111.07938 29655 ft 442 kts 255°
2026-05-05 00:49 21.34508 111.04800 29785 ft 442 kts 255°
2026-05-05 00:49 21.33597 111.01672 29910 ft 442 kts 255°
2026-05-05 00:49 21.32675 110.98514 30043 ft 441 kts 255°
2026-05-05 00:49 21.31767 110.95411 30166 ft 441 kts 255°
2026-05-05 00:50 21.30849 110.92265 30286 ft 441 kts 255°
2026-05-05 00:50 21.29938 110.89150 30409 ft 440 kts 255°
2026-05-05 00:50 21.29013 110.85995 30535 ft 440 kts 255°
2026-05-05 00:50 21.28098 110.82869 30655 ft 440 kts 255°
2026-05-05 00:51 21.27185 110.79752 30776 ft 439 kts 255°
2026-05-05 00:51 21.26274 110.76650 30895 ft 439 kts 255°
2026-05-05 00:51 21.25361 110.73541 31016 ft 438 kts 255°
2026-05-05 00:51 21.24445 110.70420 31135 ft 438 kts 255°
2026-05-05 00:52 21.23523 110.67290 31256 ft 437 kts 255°
2026-05-05 00:52 21.22608 110.64179 31375 ft 436 kts 255°
2026-05-05 00:52 21.21694 110.61078 31495 ft 436 kts 255°
2026-05-05 00:52 21.20782 110.57977 31612 ft 435 kts 255°
2026-05-05 00:53 21.19867 110.54879 31730 ft 434 kts 255°
2026-05-05 00:53 21.18940 110.51743 31852 ft 434 kts 255°
2026-05-05 00:53 21.18032 110.48664 31967 ft 433 kts 255°
2026-05-05 00:53 21.17125 110.45599 32081 ft 432 kts 255°
2026-05-05 00:54 21.16228 110.42561 32196 ft 431 kts 255°
2026-05-05 00:54 21.15320 110.39495 32309 ft 430 kts 255°
2026-05-05 00:54 21.14575 110.36414 32405 ft 426 kts 264°
2026-05-05 00:54 21.14537 110.33231 32547 ft 422 kts 277°
2026-05-05 00:55 21.15041 110.30183 32702 ft 420 kts 285°
2026-05-05 00:55 21.16032 110.27266 32848 ft 419 kts 295°
2026-05-05 00:55 21.17520 110.24548 33006 ft 419 kts 303°
2026-05-05 00:55 21.19094 110.21954 33160 ft 417 kts 298°
2026-05-05 00:56 21.20530 110.19282 33304 ft 416 kts 298°
2026-05-05 00:56 21.21929 110.16587 33441 ft 415 kts 297°
2026-05-05 00:56 21.23306 110.13882 33577 ft 414 kts 297°
2026-05-05 00:56 21.24676 110.11173 33715 ft 413 kts 297°
2026-05-05 00:57 21.26037 110.08472 33854 ft 412 kts 297°
2026-05-05 00:57 21.27395 110.05771 33993 ft 411 kts 297°
2026-05-05 00:57 21.28756 110.03064 34130 ft 410 kts 297°
2026-05-05 00:57 21.30106 110.00375 34265 ft 409 kts 297°
2026-05-05 00:58 21.31440 109.97719 34401 ft 408 kts 297°
2026-05-05 00:58 21.32786 109.95034 34538 ft 407 kts 297°
2026-05-05 00:58 21.34115 109.92386 34674 ft 406 kts 297°
2026-05-05 00:58 21.35465 109.89693 34812 ft 405 kts 297°
2026-05-05 00:59 21.36788 109.87048 34947 ft 404 kts 297°
2026-05-05 00:59 21.38107 109.84415 35081 ft 402 kts 297°
2026-05-05 00:59 21.39431 109.81769 35213 ft 401 kts 297°
2026-05-05 00:59 21.40750 109.79134 35348 ft 400 kts 297°
2026-05-05 01:00 21.42055 109.76523 35481 ft 398 kts 297°
2026-05-05 01:00 21.43347 109.73935 35613 ft 397 kts 297°
2026-05-05 01:00 21.44653 109.71323 35743 ft 395 kts 297°
2026-05-05 01:00 21.45947 109.68728 35852 ft 394 kts 297°
2026-05-05 01:01 21.47242 109.66135 35976 ft 393 kts 297°
2026-05-05 01:01 21.49820 109.60966 35985 ft 395 kts 297°
2026-05-05 01:02 21.52409 109.55766 35988 ft 397 kts 297°
2026-05-05 01:02 21.55024 109.50513 35999 ft 399 kts 297°
2026-05-05 01:03 21.57700 109.45230 36002 ft 401 kts 300°
2026-05-05 01:03 21.60857 109.40244 35994 ft 404 kts 306°
2026-05-05 01:04 21.64487 109.35675 35966 ft 394 kts 308°
2026-05-05 01:04 21.69884 109.28828 34730 ft 427 kts 308°
2026-05-05 01:05 21.71813 109.26361 33836 ft 430 kts 308°
2026-05-05 01:05 21.73749 109.23883 32851 ft 430 kts 308°
2026-05-05 01:05 21.75655 109.21442 31855 ft 430 kts 308°
2026-05-05 01:05 21.77542 109.19023 32123 ft 415 kts 308°
2026-05-05 01:06 21.79398 109.16640 32020 ft 421 kts 308°
2026-05-05 01:06 21.81305 109.14191 31902 ft 425 kts 308°
2026-05-05 01:06 21.83204 109.11754 32095 ft 423 kts 308°
2026-05-05 01:06 21.85102 109.09312 31935 ft 429 kts 308°
2026-05-05 01:07 21.88943 109.04410 32007 ft 431 kts 308°
2026-05-05 01:07 21.92853 108.99414 32005 ft 434 kts 308°
2026-05-05 01:08 21.96820 108.94341 30487 ft 472 kts 308°
2026-05-05 01:08 21.98937 108.91582 29185 ft 485 kts 305°
2026-05-05 01:08 22.00869 108.88629 28468 ft 480 kts 303°
2026-05-05 01:09 22.02746 108.85733 27431 ft 465 kts 303°
2026-05-05 01:09 22.04673 108.83115 27880 ft 418 kts 316°
2026-05-05 01:09 22.06716 108.81581 30563 ft 329 kts 318°
2026-05-05 01:09 22.08150 108.80075 32075 ft 273 kts 306°
2026-05-05 01:10 22.09357 108.78409 31669 ft 290 kts 305°
2026-05-05 01:10 22.10686 108.76630 31118 ft 308 kts 307°
2026-05-05 01:10 22.12041 108.74857 31420 ft 297 kts 306°
2026-05-05 01:10 22.13295 108.73257 32199 ft 270 kts 309°
2026-05-05 01:11 22.14593 108.71725 31377 ft 302 kts 308°
2026-05-05 01:11 22.16031 108.69878 30294 ft 330 kts 304°
2026-05-05 01:11 22.18891 108.65976 30573 ft 324 kts 308°
2026-05-05 01:12 22.20347 108.64190 30310 ft 320 kts 307°
2026-05-05 01:12 22.21801 108.62341 29864 ft 316 kts 307°
2026-05-05 01:12 22.23209 108.60544 30065 ft 308 kts 307°
2026-05-05 01:12 22.24613 108.58746 29978 ft 314 kts 307°
2026-05-05 01:13 22.27456 108.55104 30000 ft 320 kts 307°
2026-05-05 01:13 22.30366 108.51370 30001 ft 328 kts 307°
2026-05-05 01:14 22.33330 108.47567 29999 ft 335 kts 307°
2026-05-05 01:14 22.36363 108.43669 30001 ft 343 kts 307°
2026-05-05 01:15 22.39479 108.39666 30001 ft 351 kts 307°
2026-05-05 01:15 22.42654 108.35581 30003 ft 359 kts 307°
2026-05-05 01:16 22.45912 108.31383 30025 ft 367 kts 307°
2026-05-05 01:16 22.49234 108.27107 30039 ft 375 kts 307°
2026-05-05 01:17 22.52613 108.22748 30045 ft 381 kts 307°
2026-05-05 01:17 22.56058 108.18301 30045 ft 390 kts 307°
2026-05-05 01:18 22.59619 108.13789 30044 ft 399 kts 311°
2026-05-05 01:18 22.63505 108.09411 30041 ft 405 kts 310°
2026-05-05 01:19 22.67377 108.04997 30037 ft 403 kts 310°
2026-05-05 01:19 22.71215 108.00610 30038 ft 400 kts 310°
2026-05-05 01:20 22.75012 107.96263 30034 ft 400 kts 310°
2026-05-05 01:20 22.78858 107.91856 30036 ft 400 kts 310°
2026-05-05 01:21 22.82672 107.87485 30029 ft 400 kts 310°
2026-05-05 01:21 22.86501 107.83092 30029 ft 400 kts 310°
2026-05-05 01:22 22.90315 107.78712 30029 ft 399 kts 310°
2026-05-05 01:22 22.94110 107.74350 30031 ft 399 kts 310°
2026-05-05 01:23 22.97925 107.69955 30034 ft 400 kts 310°
2026-05-05 01:23 23.01801 107.65495 30047 ft 408 kts 310°
2026-05-05 01:24 23.05757 107.60937 30054 ft 415 kts 310°
2026-05-05 01:24 23.09756 107.56327 30068 ft 422 kts 310°
2026-05-05 01:25 23.13823 107.51637 30074 ft 427 kts 310°
2026-05-05 01:25 23.17956 107.46865 30071 ft 433 kts 310°
2026-05-05 01:26 23.22110 107.42064 30067 ft 435 kts 310°
2026-05-05 01:26 23.26281 107.37241 30063 ft 435 kts 310°
2026-05-05 01:27 23.30436 107.32426 30077 ft 433 kts 310°
2026-05-05 01:27 23.34610 107.27589 30080 ft 433 kts 310°
2026-05-05 01:28 23.38761 107.22773 30079 ft 433 kts 310°
2026-05-05 01:28 23.42915 107.17947 30079 ft 432 kts 310°
2026-05-05 01:29 23.47072 107.13115 30084 ft 432 kts 310°
2026-05-05 01:29 23.51192 107.08320 30077 ft 432 kts 310°
2026-05-05 01:30 23.55367 107.03458 30076 ft 432 kts 310°
2026-05-05 01:30 23.59478 106.98664 30066 ft 430 kts 310°
2026-05-05 01:31 23.63598 106.93855 30073 ft 431 kts 310°
2026-05-05 01:31 23.67690 106.89075 30065 ft 431 kts 310°
2026-05-05 01:32 23.71789 106.84280 30060 ft 432 kts 310°
2026-05-05 01:32 23.75861 106.79516 30048 ft 431 kts 310°
2026-05-05 01:33 23.79943 106.74728 30057 ft 430 kts 310°
2026-05-05 01:33 23.84007 106.69961 30063 ft 430 kts 310°
2026-05-05 01:34 23.88086 106.65175 30070 ft 430 kts 310°
2026-05-05 01:34 23.92011 106.60252 30048 ft 426 kts 299°
2026-05-05 01:35 23.93110 106.57276 30082 ft 424 kts 283°
2026-05-05 01:35 23.93638 106.54105 30095 ft 426 kts 282°
2026-05-05 01:35 23.94863 106.47791 30067 ft 426 kts 283°
2026-05-05 01:36 23.96137 106.41466 30065 ft 425 kts 283°
2026-05-05 01:36 23.97398 106.35206 30063 ft 424 kts 283°
2026-05-05 01:37 23.98671 106.28904 30071 ft 426 kts 283°
2026-05-05 01:37 23.99948 106.22553 30066 ft 426 kts 283°
2026-05-05 01:38 24.01208 106.16276 30061 ft 425 kts 283°
2026-05-05 01:38 24.02478 106.09945 30066 ft 425 kts 283°
2026-05-05 01:39 24.03740 106.03629 30060 ft 426 kts 283°
2026-05-05 01:39 24.04997 105.97335 30077 ft 426 kts 283°
2026-05-05 01:40 24.06258 105.90996 30082 ft 425 kts 283°
2026-05-05 01:40 24.07506 105.84705 30089 ft 424 kts 283°
2026-05-05 01:41 24.08762 105.78370 30107 ft 426 kts 283°
2026-05-05 01:41 24.09997 105.72118 30112 ft 426 kts 283°
2026-05-05 01:42 24.11459 105.65766 30120 ft 426 kts 285°
2026-05-05 01:42 24.12986 105.59523 30112 ft 427 kts 285°
2026-05-05 01:43 24.14526 105.53216 30117 ft 427 kts 285°
2026-05-05 01:43 24.16042 105.46983 30121 ft 426 kts 285°
2026-05-05 01:44 24.17565 105.40711 30120 ft 426 kts 285°
2026-05-05 01:44 24.19085 105.34438 30127 ft 426 kts 285°
2026-05-05 01:45 24.20610 105.28132 30149 ft 427 kts 284°
2026-05-05 01:45 24.22124 105.21857 30159 ft 428 kts 284°
2026-05-05 01:46 24.23530 105.15563 30152 ft 428 kts 284°
2026-05-05 01:46 24.24937 105.09211 30141 ft 427 kts 284°
2026-05-05 01:47 24.26330 105.02920 30148 ft 427 kts 284°
2026-05-05 01:47 24.27725 104.96608 30153 ft 427 kts 284°
2026-05-05 01:48 24.29123 104.90275 30161 ft 428 kts 284°
2026-05-05 01:48 24.30519 104.83919 30164 ft 428 kts 284°
2026-05-05 01:49 24.31920 104.77545 30174 ft 428 kts 284°
2026-05-05 01:49 24.33314 104.71188 30366 ft 427 kts 284°
2026-05-05 01:50 24.34002 104.68041 30495 ft 427 kts 284°
2026-05-05 01:50 24.34703 104.64833 30614 ft 426 kts 284°
2026-05-05 01:50 24.35400 104.61643 30737 ft 426 kts 284°
2026-05-05 01:50 24.36087 104.58485 30852 ft 425 kts 284°
2026-05-05 01:51 24.36778 104.55323 30968 ft 424 kts 284°
2026-05-05 01:51 24.37463 104.52174 31086 ft 424 kts 284°
2026-05-05 01:51 24.38147 104.49018 31202 ft 423 kts 284°
2026-05-05 01:51 24.38831 104.45875 31310 ft 422 kts 284°
2026-05-05 01:52 24.39515 104.42715 31418 ft 422 kts 284°
2026-05-05 01:52 24.40193 104.39590 31527 ft 421 kts 284°
2026-05-05 01:52 24.40870 104.36463 31638 ft 420 kts 284°
2026-05-05 01:52 24.41544 104.33345 31756 ft 419 kts 284°
2026-05-05 01:53 24.42221 104.30213 31885 ft 418 kts 284°
2026-05-05 01:53 24.42885 104.27132 32013 ft 417 kts 284°
2026-05-05 01:53 24.43563 104.23988 32141 ft 416 kts 284°
2026-05-05 01:53 24.44232 104.20890 32215 ft 417 kts 284°
2026-05-05 01:54 24.45569 104.14667 32223 ft 421 kts 284°
2026-05-05 01:54 24.46910 104.08416 32217 ft 423 kts 283°
2026-05-05 01:55 24.48260 104.02102 32232 ft 425 kts 284°
2026-05-05 01:55 24.49623 103.95725 32236 ft 427 kts 283°
2026-05-05 01:56 24.50974 103.89388 32235 ft 429 kts 284°
2026-05-05 01:56 24.52336 103.82982 32239 ft 430 kts 284°
2026-05-05 01:57 24.53701 103.76555 32242 ft 431 kts 284°
2026-05-05 01:57 24.54288 103.69974 32266 ft 432 kts 272°
2026-05-05 01:58 24.54405 103.63388 32243 ft 432 kts 273°
2026-05-05 01:58 24.54538 103.56776 32242 ft 432 kts 274°
2026-05-05 01:59 24.54674 103.50180 32243 ft 432 kts 273°
2026-05-05 01:59 24.54806 103.43538 32247 ft 433 kts 273°
2026-05-05 02:00 24.54936 103.36906 32251 ft 432 kts 274°
2026-05-05 02:00 24.55062 103.30257 32261 ft 433 kts 273°
2026-05-05 02:01 24.55187 103.23636 32250 ft 433 kts 273°
2026-05-05 02:01 24.55667 103.17112 32244 ft 430 kts 286°
2026-05-05 02:02 24.57831 103.10955 32249 ft 430 kts 290°
2026-05-05 02:02 24.59954 103.04794 32260 ft 431 kts 290°
2026-05-05 02:03 24.62047 102.98624 32265 ft 432 kts 290°
2026-05-05 02:03 24.64131 102.92474 32264 ft 431 kts 290°
2026-05-05 02:04 24.66218 102.86292 32261 ft 429 kts 290°
2026-05-05 02:04 24.68134 102.80020 32237 ft 430 kts 281°
2026-05-05 02:05 24.68293 102.76749 32264 ft 433 kts 269°
2026-05-05 02:05 24.67984 102.73447 32266 ft 433 kts 268°
2026-05-05 02:05 24.67521 102.66788 32256 ft 434 kts 269°
2026-05-05 02:06 24.67097 102.60148 32262 ft 435 kts 269°
2026-05-05 02:06 24.66748 102.53535 32271 ft 434 kts 270°
2026-05-05 02:07 24.66467 102.46866 32271 ft 435 kts 270°
2026-05-05 02:07 24.66182 102.40253 32252 ft 435 kts 270°
2026-05-05 02:08 24.65892 102.33585 32238 ft 434 kts 269°
2026-05-05 02:08 24.65602 102.26945 32240 ft 434 kts 270°
2026-05-05 02:09 24.65309 102.20312 32239 ft 435 kts 270°
2026-05-05 02:09 24.65010 102.13625 32235 ft 436 kts 270°
2026-05-05 02:10 24.64709 102.06957 32236 ft 436 kts 270°
2026-05-05 02:10 24.64408 102.00343 32235 ft 436 kts 269°
2026-05-05 02:11 24.64101 101.93687 32235 ft 437 kts 270°
2026-05-05 02:11 24.63793 101.87028 32239 ft 436 kts 270°
2026-05-05 02:12 24.63324 101.77051 32234 ft 436 kts 270°
2026-05-05 02:13 24.63008 101.70408 32233 ft 437 kts 269°
2026-05-05 02:13 24.62689 101.63735 32231 ft 438 kts 269°
2026-05-05 02:14 24.62292 101.57093 32215 ft 439 kts 263°
2026-05-05 02:14 24.61321 101.53904 32225 ft 446 kts 246°
2026-05-05 02:14 24.59724 101.50952 32256 ft 448 kts 244°
2026-05-05 02:15 24.56713 101.44999 32219 ft 449 kts 246°
2026-05-05 02:15 24.53718 101.38953 32214 ft 450 kts 246°
2026-05-05 02:16 24.50727 101.32898 32223 ft 451 kts 245°
2026-05-05 02:16 24.47722 101.26826 32231 ft 453 kts 245°
2026-05-05 02:17 24.44714 101.20755 32245 ft 452 kts 245°
2026-05-05 02:17 24.41713 101.14705 32252 ft 453 kts 245°
2026-05-05 02:18 24.38708 101.08651 32252 ft 454 kts 245°
2026-05-05 02:18 24.35687 101.02576 32250 ft 454 kts 245°
2026-05-05 02:19 24.32643 100.96462 32251 ft 454 kts 245°
2026-05-05 02:19 24.29614 100.90389 32260 ft 455 kts 245°
2026-05-05 02:20 24.26588 100.84326 32263 ft 455 kts 245°
2026-05-05 02:20 24.23544 100.78236 32268 ft 455 kts 245°
2026-05-05 02:21 24.20511 100.72179 32269 ft 455 kts 245°
2026-05-05 02:21 24.17457 100.66084 32259 ft 456 kts 245°
2026-05-05 02:22 24.14414 100.60017 32245 ft 456 kts 245°
2026-05-05 02:22 24.11340 100.53923 32231 ft 457 kts 244°
2026-05-05 02:23 24.08237 100.47864 32222 ft 456 kts 244°
2026-05-05 02:23 24.05124 100.41789 32260 ft 457 kts 244°
2026-05-05 02:24 24.02020 100.35737 32282 ft 457 kts 244°
2026-05-05 02:24 23.98895 100.29654 32341 ft 458 kts 244°
2026-05-05 02:25 23.95764 100.23566 32360 ft 458 kts 244°
2026-05-05 02:25 23.92657 100.17534 32331 ft 459 kts 244°
2026-05-05 02:26 23.89520 100.11449 32311 ft 458 kts 244°
2026-05-05 02:26 23.86389 100.05383 32301 ft 458 kts 244°
2026-05-05 02:27 23.83258 99.99326 32297 ft 458 kts 244°
2026-05-05 02:27 23.80137 99.93295 32293 ft 458 kts 244°
2026-05-05 02:28 23.76991 99.87219 32294 ft 458 kts 244°
2026-05-05 02:28 23.73857 99.81184 32301 ft 458 kts 244°
2026-05-05 02:29 23.70722 99.75146 32289 ft 458 kts 243°
2026-05-05 02:29 23.67564 99.69075 32275 ft 457 kts 244°
2026-05-05 02:30 23.64442 99.63081 32261 ft 458 kts 243°
2026-05-05 02:30 23.61270 99.56994 32246 ft 458 kts 243°
2026-05-05 02:31 23.58126 99.50970 32237 ft 458 kts 243°
2026-05-05 02:31 23.54971 99.44933 32235 ft 458 kts 243°
2026-05-05 02:32 23.52086 99.38798 32232 ft 453 kts 255°
2026-05-05 02:32 23.50152 99.32254 32262 ft 454 kts 253°
2026-05-05 02:33 23.48149 99.25767 32291 ft 454 kts 253°
2026-05-05 02:33 23.46126 99.19269 32273 ft 455 kts 253°
2026-05-05 02:34 23.44095 99.12757 32247 ft 454 kts 253°
2026-05-05 02:34 23.42065 99.06256 32212 ft 453 kts 253°
2026-05-05 02:35 23.40026 98.99745 32172 ft 453 kts 253°
2026-05-05 02:35 23.37991 98.93250 32167 ft 454 kts 252°
2026-05-05 02:36 23.35863 98.86787 32157 ft 454 kts 252°
2026-05-05 02:36 23.33697 98.80322 32175 ft 455 kts 252°
2026-05-05 02:37 23.31539 98.73892 32191 ft 455 kts 252°
2026-05-05 02:37 23.29367 98.67428 32175 ft 455 kts 252°
2026-05-05 02:38 23.27196 98.60975 32167 ft 455 kts 252°
2026-05-05 02:38 23.25031 98.54551 32143 ft 454 kts 252°
2026-05-05 02:39 23.22858 98.48116 32127 ft 454 kts 252°
2026-05-05 02:39 23.20685 98.41688 32135 ft 455 kts 252°
2026-05-05 02:40 23.18489 98.35204 32142 ft 455 kts 252°
2026-05-05 02:40 23.16302 98.28752 32164 ft 455 kts 251°
2026-05-05 02:41 23.14111 98.22297 32174 ft 455 kts 251°
2026-05-05 02:41 23.11920 98.15858 32149 ft 455 kts 251°
2026-05-05 02:42 23.09722 98.09406 32133 ft 455 kts 251°
2026-05-05 02:42 23.07511 98.02924 32116 ft 456 kts 252°
2026-05-05 02:43 23.05299 97.96451 32100 ft 457 kts 252°
2026-05-05 02:43 23.03075 97.89952 32101 ft 456 kts 251°
2026-05-05 02:44 23.00857 97.83478 32102 ft 456 kts 252°
2026-05-05 02:44 22.98653 97.76968 32092 ft 454 kts 255°
2026-05-05 02:44 22.98183 97.73611 32095 ft 450 kts 272°
2026-05-05 02:45 22.98593 97.70228 32138 ft 449 kts 281°
2026-05-05 02:45 22.99546 97.63532 32091 ft 450 kts 278°
2026-05-05 02:46 23.00392 97.56737 32091 ft 449 kts 278°
2026-05-05 02:46 23.01215 97.50002 32094 ft 449 kts 278°
2026-05-05 02:47 23.02037 97.43245 32108 ft 449 kts 278°
2026-05-05 02:47 23.02853 97.36514 32131 ft 448 kts 278°
2026-05-05 02:48 23.03663 97.29798 32161 ft 448 kts 277°
2026-05-05 02:48 23.04468 97.23099 32194 ft 448 kts 277°
2026-05-05 02:49 23.05273 97.16385 32174 ft 448 kts 277°
2026-05-05 02:49 23.06072 97.09693 32155 ft 447 kts 277°
2026-05-05 02:50 23.06871 97.02976 32136 ft 447 kts 277°
2026-05-05 02:50 23.07665 96.96278 32105 ft 445 kts 277°
2026-05-05 02:51 23.08451 96.89629 32109 ft 445 kts 277°
2026-05-05 02:51 23.09239 96.82925 32092 ft 445 kts 277°
2026-05-05 02:52 23.10027 96.76202 32093 ft 446 kts 277°
2026-05-05 02:52 23.10805 96.69531 32085 ft 446 kts 277°
2026-05-05 02:53 23.11585 96.62838 32082 ft 446 kts 277°
2026-05-05 02:53 23.12362 96.56141 32082 ft 445 kts 277°
2026-05-05 02:54 23.13134 96.49453 32057 ft 445 kts 277°
2026-05-05 02:54 23.13898 96.42811 32047 ft 444 kts 277°
2026-05-05 02:55 23.14664 96.36115 32030 ft 445 kts 277°
2026-05-05 02:55 23.15431 96.29398 32031 ft 446 kts 276°
2026-05-05 02:56 23.16186 96.22749 32015 ft 445 kts 276°
2026-05-05 02:56 23.16947 96.16035 31993 ft 445 kts 276°
2026-05-05 02:57 23.17705 96.09326 31972 ft 445 kts 276°
2026-05-05 02:57 23.18455 96.02648 31945 ft 445 kts 276°
2026-05-05 02:58 23.19211 95.95913 31931 ft 446 kts 276°
2026-05-05 02:58 23.19957 95.89213 31938 ft 445 kts 276°
2026-05-05 02:59 23.20703 95.82496 31950 ft 444 kts 276°
2026-05-05 02:59 23.21443 95.75810 31959 ft 444 kts 276°
2026-05-05 03:00 23.22182 95.69102 31965 ft 444 kts 276°
2026-05-05 03:00 23.22913 95.62448 31965 ft 444 kts 276°
2026-05-05 03:01 23.23645 95.55776 31967 ft 445 kts 276°
2026-05-05 03:01 23.24376 95.49046 31967 ft 445 kts 276°
2026-05-05 03:02 23.25102 95.42358 31963 ft 445 kts 276°
2026-05-05 03:02 23.25823 95.35687 31960 ft 445 kts 276°
2026-05-05 03:03 23.26550 95.28925 31965 ft 445 kts 276°
2026-05-05 03:03 23.27266 95.22256 31963 ft 444 kts 276°
2026-05-05 03:04 23.27983 95.15546 31973 ft 444 kts 276°
2026-05-05 03:04 23.28691 95.08866 31981 ft 444 kts 276°
2026-05-05 03:05 23.29402 95.02161 31987 ft 445 kts 276°
2026-05-05 03:05 23.30107 94.95476 31992 ft 445 kts 275°
2026-05-05 03:06 23.30812 94.88760 31997 ft 445 kts 276°
2026-05-05 03:06 23.31514 94.82054 32001 ft 445 kts 275°
2026-05-05 03:07 23.32212 94.75349 31995 ft 446 kts 276°
2026-05-05 03:07 23.32907 94.68630 31986 ft 446 kts 276°
2026-05-05 03:08 23.33603 94.61896 31978 ft 446 kts 276°
2026-05-05 03:08 23.34294 94.55183 31976 ft 445 kts 276°
2026-05-05 03:09 23.34986 94.48431 31972 ft 445 kts 276°
2026-05-05 03:09 23.35669 94.41730 31968 ft 445 kts 276°
2026-05-05 03:10 23.36350 94.35014 31971 ft 446 kts 276°
2026-05-05 03:10 23.37038 94.28216 31983 ft 447 kts 275°
2026-05-05 03:11 23.37714 94.21497 31986 ft 447 kts 275°
2026-05-05 03:11 23.38392 94.14722 31986 ft 446 kts 275°
2026-05-05 03:12 23.39060 94.08028 31983 ft 446 kts 275°
2026-05-05 03:12 23.39729 94.01292 31980 ft 446 kts 275°
2026-05-05 03:13 23.40396 93.94544 32013 ft 446 kts 275°
2026-05-05 03:13 23.41057 93.87830 32075 ft 446 kts 275°
2026-05-05 03:14 23.41716 93.81108 32119 ft 445 kts 275°
2026-05-05 03:14 23.42366 93.74437 32172 ft 444 kts 275°
2026-05-05 03:15 23.43019 93.67720 32182 ft 445 kts 275°
2026-05-05 03:15 23.43663 93.61063 32182 ft 445 kts 275°
2026-05-05 03:16 23.44310 93.54342 32172 ft 444 kts 275°
2026-05-05 03:16 23.44953 93.47646 32170 ft 445 kts 275°
2026-05-05 03:17 23.46063 93.41009 32172 ft 446 kts 281°
2026-05-05 03:17 23.47343 93.34384 32142 ft 446 kts 280°
2026-05-05 03:18 23.48605 93.27726 32136 ft 447 kts 279°
2026-05-05 03:18 23.49853 93.21111 32129 ft 447 kts 279°
2026-05-05 03:19 23.51731 93.11134 32105 ft 446 kts 279°
2026-05-05 03:19 23.52984 93.04449 32093 ft 445 kts 279°
2026-05-05 03:20 23.54216 92.97862 32086 ft 445 kts 279°
2026-05-05 03:20 23.55449 92.91258 32079 ft 445 kts 279°
2026-05-05 03:21 23.56688 92.84606 32081 ft 445 kts 279°
2026-05-05 03:21 23.57923 92.77952 32061 ft 445 kts 279°
2026-05-05 03:22 23.59147 92.71337 32054 ft 444 kts 279°
2026-05-05 03:22 23.60376 92.64689 32046 ft 444 kts 279°
2026-05-05 03:23 23.61714 92.58040 32031 ft 444 kts 281°
2026-05-05 03:23 23.63076 92.51496 32028 ft 444 kts 281°
2026-05-05 03:24 23.64457 92.44852 32020 ft 445 kts 281°
2026-05-05 03:24 23.65723 92.38744 31997 ft 445 kts 281°
2026-05-05 03:25 23.67093 92.32124 31991 ft 445 kts 280°
2026-05-05 03:25 23.68458 92.25511 31968 ft 445 kts 280°
2026-05-05 03:26 23.69825 92.18869 31955 ft 444 kts 280°
2026-05-05 03:26 23.71184 92.12257 31946 ft 444 kts 280°
2026-05-05 03:27 23.72540 92.05636 31942 ft 443 kts 280°
2026-05-05 03:27 23.73888 91.99045 31941 ft 443 kts 280°
2026-05-05 03:28 23.75232 91.92457 31944 ft 442 kts 280°
2026-05-05 03:28 23.76580 91.85838 31939 ft 442 kts 280°
2026-05-05 03:29 23.77914 91.79269 31939 ft 442 kts 280°
2026-05-05 03:29 23.79259 91.72636 31934 ft 443 kts 280°
2026-05-05 03:30 23.80593 91.66040 31928 ft 443 kts 280°
2026-05-05 03:30 23.81918 91.59472 31929 ft 442 kts 279°
2026-05-05 03:31 23.83234 91.52926 31925 ft 442 kts 279°
2026-05-05 03:31 23.84561 91.46308 31925 ft 442 kts 280°
2026-05-05 03:32 23.85880 91.39739 31918 ft 442 kts 279°
2026-05-05 03:32 23.87204 91.33111 31926 ft 443 kts 279°
2026-05-05 03:33 23.88524 91.26483 31928 ft 443 kts 279°
2026-05-05 03:33 23.89901 91.19968 31931 ft 442 kts 280°
2026-05-05 03:34 23.91342 91.13384 31932 ft 441 kts 280°
2026-05-05 03:34 23.92764 91.06873 31932 ft 441 kts 280°
2026-05-05 03:35 23.94187 91.00341 31930 ft 442 kts 280°
2026-05-05 03:35 23.95614 90.93775 31928 ft 442 kts 280°
2026-05-05 03:36 23.97038 90.87215 31928 ft 441 kts 280°
2026-05-05 03:36 23.98456 90.80668 31925 ft 441 kts 280°
2026-05-05 03:37 23.99874 90.74101 31929 ft 441 kts 280°
2026-05-05 03:37 24.01288 90.67539 31925 ft 441 kts 280°
2026-05-05 03:38 24.02701 90.60970 31921 ft 441 kts 280°
2026-05-05 03:38 24.04099 90.54449 31916 ft 442 kts 280°
2026-05-05 03:39 24.05512 90.47852 31911 ft 442 kts 280°
2026-05-05 03:39 24.06910 90.41310 31910 ft 442 kts 279°
2026-05-05 03:40 24.08303 90.34737 31911 ft 440 kts 279°
2026-05-05 03:40 24.09700 90.28138 31923 ft 441 kts 279°
2026-05-05 03:41 24.11091 90.21549 31912 ft 441 kts 279°
2026-05-05 03:41 24.12484 90.14923 31914 ft 440 kts 279°
2026-05-05 03:42 24.13869 90.08341 31909 ft 440 kts 279°
2026-05-05 03:42 24.15238 90.01803 31907 ft 440 kts 279°
2026-05-05 03:43 24.16620 89.95200 31906 ft 440 kts 279°
2026-05-05 03:43 24.17995 89.88614 31903 ft 440 kts 279°
2026-05-05 03:44 24.19373 89.81996 31907 ft 440 kts 279°
2026-05-05 03:44 24.20738 89.75417 31903 ft 440 kts 279°
2026-05-05 03:45 24.22093 89.68883 31901 ft 440 kts 279°
2026-05-05 03:45 24.23457 89.62289 31901 ft 440 kts 279°
2026-05-05 03:46 24.24804 89.55760 31901 ft 440 kts 279°
2026-05-05 03:46 24.26163 89.49161 31902 ft 438 kts 279°
2026-05-05 03:47 24.27497 89.42655 31896 ft 438 kts 279°
2026-05-05 03:47 24.28846 89.36086 31897 ft 438 kts 279°
2026-05-05 03:48 24.30177 89.29567 31913 ft 439 kts 278°
2026-05-05 03:48 24.31514 89.23003 31914 ft 439 kts 278°
2026-05-05 03:49 24.32853 89.16424 31916 ft 439 kts 278°
2026-05-05 03:49 24.34181 89.09889 31915 ft 438 kts 278°
2026-05-05 03:50 24.35509 89.03334 31914 ft 438 kts 278°
2026-05-05 03:50 24.36830 88.96792 31900 ft 439 kts 278°
2026-05-05 03:51 24.38156 88.90227 31897 ft 438 kts 278°
2026-05-05 03:51 24.39479 88.83644 31893 ft 438 kts 278°
2026-05-05 03:52 24.40791 88.77101 31887 ft 438 kts 278°
2026-05-05 03:52 24.42106 88.70535 31890 ft 437 kts 278°
2026-05-05 03:53 24.43413 88.63984 31886 ft 436 kts 278°
2026-05-05 03:53 24.45458 88.57719 31911 ft 443 kts 291°
2026-05-05 03:54 24.48095 88.51566 31886 ft 444 kts 289°
2026-05-05 03:54 24.50687 88.45415 31887 ft 444 kts 290°
2026-05-05 03:55 24.53305 88.39178 31890 ft 444 kts 289°
2026-05-05 03:55 24.55903 88.32980 31902 ft 444 kts 289°
2026-05-05 03:56 24.58496 88.26787 31903 ft 444 kts 289°
2026-05-05 03:56 24.61068 88.20635 31900 ft 444 kts 289°
2026-05-05 03:57 24.63631 88.14494 31901 ft 443 kts 289°
2026-05-05 03:57 24.66202 88.08324 31902 ft 443 kts 289°
2026-05-05 03:58 24.68773 88.02145 31902 ft 442 kts 289°
2026-05-05 03:58 24.71325 87.95948 31901 ft 443 kts 289°
2026-05-05 03:59 24.73859 87.89788 31904 ft 442 kts 289°
2026-05-05 03:59 24.76403 87.83595 31903 ft 441 kts 289°
2026-05-05 04:00 24.78950 87.77470 31904 ft 441 kts 290°
2026-05-05 04:00 24.81579 87.71301 31907 ft 441 kts 289°
2026-05-05 04:01 24.84191 87.65160 31915 ft 442 kts 289°
2026-05-05 04:01 24.86797 87.59022 31917 ft 442 kts 289°
2026-05-05 04:02 24.89417 87.52844 31922 ft 442 kts 289°
2026-05-05 04:02 24.92020 87.46694 31925 ft 441 kts 289°
2026-05-05 04:03 24.94620 87.40548 31917 ft 440 kts 289°
2026-05-05 04:03 24.97221 87.34387 31908 ft 441 kts 289°
2026-05-05 04:04 24.99811 87.28248 31906 ft 440 kts 288°
2026-05-05 04:04 25.02408 87.22079 31908 ft 441 kts 289°
2026-05-05 04:05 25.05001 87.15910 31907 ft 439 kts 289°
2026-05-05 04:05 25.07580 87.09766 31903 ft 439 kts 289°
2026-05-05 04:06 25.10164 87.03609 31904 ft 439 kts 289°
2026-05-05 04:06 25.12743 86.97449 31898 ft 439 kts 288°
2026-05-05 04:07 25.15336 86.91246 31895 ft 439 kts 288°
2026-05-05 04:07 25.17908 86.85088 31892 ft 439 kts 288°
2026-05-05 04:08 25.20480 86.78925 31896 ft 439 kts 288°
2026-05-05 04:08 25.23028 86.72800 31889 ft 439 kts 288°
2026-05-05 04:09 25.25587 86.66645 31888 ft 439 kts 289°
2026-05-05 04:09 25.28148 86.60478 31891 ft 440 kts 288°
2026-05-05 04:10 25.30719 86.54277 31892 ft 439 kts 288°
2026-05-05 04:10 25.33269 86.48114 31894 ft 439 kts 289°
2026-05-05 04:11 25.35518 86.41846 31870 ft 429 kts 276°
2026-05-05 04:11 25.36612 86.35386 31885 ft 429 kts 276°
2026-05-05 04:12 25.37788 86.28870 31899 ft 431 kts 276°
2026-05-05 04:12 25.38982 86.22305 31902 ft 430 kts 276°
2026-05-05 04:13 25.40166 86.15793 31903 ft 430 kts 276°
2026-05-05 04:13 25.41343 86.09299 31902 ft 431 kts 276°
2026-05-05 04:14 25.42519 86.02799 31894 ft 431 kts 276°
2026-05-05 04:14 25.43700 85.96241 31890 ft 431 kts 276°
2026-05-05 04:15 25.44878 85.89693 31891 ft 431 kts 276°
2026-05-05 04:15 25.46039 85.83221 31897 ft 431 kts 276°
2026-05-05 04:16 25.47211 85.76654 31893 ft 431 kts 276°
2026-05-05 04:16 25.48371 85.70151 31889 ft 431 kts 276°
2026-05-05 04:17 25.49529 85.63648 31889 ft 431 kts 277°
2026-05-05 04:17 25.50683 85.57143 31890 ft 431 kts 277°
2026-05-05 04:18 25.51846 85.50575 31884 ft 431 kts 276°
2026-05-05 04:18 25.52994 85.44063 31881 ft 431 kts 277°
2026-05-05 04:19 25.54141 85.37550 31884 ft 430 kts 276°
2026-05-05 04:19 25.55289 85.31003 31908 ft 430 kts 276°
2026-05-05 04:20 25.56439 85.24436 31908 ft 430 kts 276°
2026-05-05 04:20 25.57573 85.17931 31916 ft 430 kts 276°
2026-05-05 04:21 25.58711 85.11390 31913 ft 429 kts 276°
2026-05-05 04:21 25.60330 85.05003 31922 ft 434 kts 283°
2026-05-05 04:22 25.62241 84.98570 31909 ft 437 kts 283°
2026-05-05 04:22 25.64128 84.92155 31906 ft 439 kts 283°
2026-05-05 04:23 25.66020 84.85702 31903 ft 439 kts 283°
2026-05-05 04:23 25.67914 84.79226 31892 ft 439 kts 283°
2026-05-05 04:24 25.69790 84.72800 31895 ft 438 kts 283°
2026-05-05 04:25 25.72635 84.63049 31891 ft 438 kts 283°
2026-05-05 04:25 25.74512 84.56584 31888 ft 438 kts 283°
2026-05-05 04:26 25.76383 84.50148 31894 ft 438 kts 283°
2026-05-05 04:26 25.78251 84.43690 31892 ft 439 kts 283°
2026-05-05 04:27 25.80120 84.37234 31887 ft 439 kts 284°
2026-05-05 04:27 25.81989 84.30759 31903 ft 438 kts 283°
2026-05-05 04:28 25.83839 84.24340 31898 ft 439 kts 283°
2026-05-05 04:28 25.85707 84.17841 31898 ft 438 kts 283°
2026-05-05 04:29 25.87560 84.11393 31898 ft 438 kts 283°
2026-05-05 04:29 25.89399 84.04974 31899 ft 438 kts 283°
2026-05-05 04:30 25.91244 83.98523 31896 ft 438 kts 283°